Flag for China

Past Weather in Shanghai, Shanghai Municipality, China — Yesterday and Last 2 Weeks

Now
79 °F

Partly sunny.


Feels Like: 80 °F
Forecast: 82 / 69 °F
Wind: 10 mph from Northeast

Location: Shanghai Hongqiao Airport
Current Time: Sep 26, 2020 at 2:33:30 pm
Latest Report: Sep 26, 2020 at 2:00 pm
Visibility: N/A
Pressure29.95 "Hg
Humidity: 58%
Dew Point: 63 °F
Location of ShanghaiLocation

Past Weather in Shanghai — Graph

°F

Shanghai Temperature Yesterday

Maximum temperature yesterday: 81 °F (at 1:00 pm)
Minimum temperature yesterday: 66 °F (at 3:00 am)
Average temperature yesterday: 73 °F

High & Low Weather Summary for the Past Weeks

 TemperatureHumidityPressure
High84 °F (Sep 12, 1:30 pm)100% (Sep 14, 3:30 pm)30.09 "Hg (Sep 14, 3:30 pm)
Low63 °F (Sep 18, 2:30 am)30% (Sep 20, 4:00 pm)29.77 "Hg (Sep 11, 1:00 pm)
Average73 °F79%29.95 "Hg
* Reported Sep 11 1:00 pm — Sep 26 1:00 pm, Shanghai. Weather by CustomWeather, © 2020

Note: Actual official high and low records may vary slightly from our data, if they occured in-between our weather recording intervals... More about our weather records

Shanghai Weather History for the Previous 24 Hours

Scroll right to see more
 ConditionsComfort  
Time TempWeatherWind HumidityBarometerVisibility
1:00 pm
Sat, Sep 26
79 °FScattered clouds.10 mph58%29.95 "HgN/A
12:30 pm81 °FScattered clouds.10 mph48%29.98 "HgN/A
12:00 pm79 °FScattered clouds.10 mph54%29.98 "HgN/A
11:30 am79 °FScattered clouds.8 mph54%29.98 "HgN/A
11:00 am79 °FScattered clouds.10 mph58%30.01 "HgN/A
10:30 am77 °FScattered clouds.10 mph57%30.01 "HgN/A
10:00 am75 °FPassing clouds.10 mph65%30.01 "HgN/A
9:30 am75 °FPassing clouds.13 mph65%29.98 "HgN/A
9:00 am75 °FPassing clouds.13 mph69%29.98 "HgN/A
8:30 am73 °FPassing clouds.10 mph74%29.98 "HgN/A
7:30 am72 °FSunny.6 mph78%29.98 "Hg10 mi
7:00 am72 °FSunny.6 mph78%29.98 "Hg10 mi
6:30 am70 °FSunny.8 mph83%29.98 "Hg10 mi
6:00 am70 °FSunny.6 mph83%29.98 "Hg10 mi
5:30 am70 °FClear.6 mph83%29.98 "Hg10 mi
5:00 am70 °FClear.6 mph83%29.95 "Hg10 mi
4:30 am70 °FClear.8 mph83%29.95 "Hg10 mi
4:00 am70 °FClear.6 mph83%29.95 "Hg10 mi
3:30 am70 °FClear.3 mph83%29.95 "Hg10 mi
3:00 am70 °FClear.3 mph83%29.95 "Hg10 mi
2:30 am70 °FClear.3 mph78%29.95 "Hg10 mi
2:00 am70 °FClear.3 mph78%29.95 "Hg10 mi
1:30 am70 °FClear.3 mph78%29.95 "Hg10 mi
1:00 am70 °FClear.3 mph78%29.95 "Hg10 mi
12:30 am70 °FClear.6 mph78%29.95 "Hg10 mi
12:00 am70 °FClear.6 mph78%29.95 "Hg10 mi
11:30 pm
Fri, Sep 25
72 °FClear.6 mph73%29.95 "Hg10 mi
11:00 pm70 °FClear.6 mph78%29.95 "Hg10 mi
10:30 pm72 °FClear.3 mph73%29.98 "Hg10 mi
10:00 pm72 °FClear.6 mph73%29.98 "Hg10 mi
9:00 pm73 °FClear.8 mph65%29.98 "Hg10 mi
8:30 pm73 °FClear.6 mph65%29.98 "Hg10 mi
8:00 pm73 °FClear.6 mph65%29.98 "Hg10 mi
7:30 pm73 °FClear.6 mph65%29.95 "Hg10 mi
7:00 pm73 °FClear.10 mph65%29.95 "Hg10 mi
6:30 pm75 °FPassing clouds.8 mph61%29.95 "HgN/A
6:00 pm75 °FPassing clouds.10 mph65%29.95 "HgN/A
5:30 pm75 °FScattered clouds.10 mph65%29.92 "HgN/A
5:00 pm77 °FPartly sunny.10 mph61%29.92 "HgN/A
4:30 pm77 °FPartly sunny.13 mph61%29.92 "HgN/A
4:00 pm79 °FPartly sunny.10 mph58%29.92 "HgN/A
3:30 pm79 °FPartly sunny.13 mph58%29.92 "HgN/A
3:00 pm79 °FPartly sunny.10 mph54%29.89 "HgN/A
2:30 pm79 °FPartly sunny.13 mph58%29.92 "HgN/A
2:00 pm81 °FPartly sunny.8 mph51%29.89 "HgN/A
Weather by CustomWeather, © 2020

See weather overview